Weather History for KOLV - July, 2013

Change the Weather History Date:

Thursday, July 4, 2013

  Actual Average (KMEM) Record (KMEM)
Temperature  
Mean Temperature 74 °F 82 °F  
Max Temperature 84 °F 91 °F 100 °F (2012)
Min Temperature 64 °F 74 °F 59 °F (1968)
Degree Days  
Heating Degree Days 0 0  
Month to date heating degree days 0  
Since 1 June heating degree days 0  
Since 1 July heating degree days 0  
Cooling Degree Days 9 17  
Month to date cooling degree days 68  
Year to date cooling degree days 827  
Since 1 June cooling degree days 506  
Growing Degree Days 24 (Base 50)    
Moisture  
Dew Point 68 °F    
Average Humidity 92    
Maximum Humidity 100    
Minimum Humidity 55    
Precipitation  
Precipitation 0.00 in 0.13 in 2.13 in (1937)
Month to date precipitation 0.53  
Year to date precipitation 28.44  
Snow  
Snow 0.00 in 0.00 in - ()
Month to date snowfall 0.0  
Since 1 June snowfall 0.0  
Since 1 July snowfall 0.0  
Snow Depth -    
Sea Level Pressure  
Sea Level Pressure 30.03 in    
Wind  
Wind Speed 2 mph (ENE)    
Max Wind Speed 10 mph    
Max Gust Speed -    
Visibility 9 miles    
Events      
T = Trace of Precipitation, MM = Missing Value Source: NWS Daily Summary

Daily Weather History Graph

Daily Weather History Graph

Search for Another Location

Airport or City:

Trip Planner

Search our weather history database for the weather conditions in past years. The results will help you decide how hot, cold, wet, or windy it might be!

Date:

Astronomy

Jul. 04, 2013 Rise Set
Actual Time 5:50 AM CDT 8:16 PM CDT
Civil Twilight 5:20 AM CDT 8:46 PM CDT
Nautical Twilight 4:44 AM CDT 9:22 PM CDT
Astronomical Twilight 4:04 AM CDT 10:02 PM CDT
Moon 3:04 AM CDT (7/4) 5:23 PM CDT (7/4)
Length of Visible Light 15h 25m
Length of Day
14h 26m
Waning Crescent, 11% of the Moon is Illuminated
Jul 4
Waning Crescent
Jul 8
New
Jul 15
First Quarter
Jul 22
Full
Jul 29
Last Quarter

Hourly Weather History & Observations

Time (CDT) Temp. Heat Index Dew Point Humidity Pressure Visibility Wind Dir Wind Speed Gust Speed Precip Events Conditions
12:15 AM 68.0 °F - 66.2 °F 94% 30.06 in 9.0 mi Calm Calm - 0.00 in   Clear
12:35 AM 69.8 °F - 66.2 °F 88% 30.06 in 9.0 mi ENE 3.5 mph - 0.00 in   Clear
12:55 AM 68.0 °F - 66.2 °F 94% 30.06 in 10.0 mi Calm Calm - 0.00 in   Clear
1:15 AM 66.2 °F - 66.2 °F 100% 30.05 in 10.0 mi Calm Calm - 0.00 in   Clear
1:35 AM 66.2 °F - 66.2 °F 100% 30.05 in 8.0 mi Calm Calm - 0.00 in   Clear
1:55 AM 64.4 °F - 64.4 °F 100% 30.05 in 10.0 mi North 5.8 mph - 0.00 in   Clear
2:15 AM 64.4 °F - 64.4 °F 100% 30.05 in 10.0 mi Calm Calm - 0.00 in   Clear
2:35 AM 64.4 °F - 64.4 °F 100% 30.04 in 8.0 mi Calm Calm - 0.00 in   Clear
2:55 AM 64.4 °F - 64.4 °F 100% 30.03 in 10.0 mi Calm Calm - 0.00 in   Clear
3:15 AM 66.2 °F - 66.2 °F 100% 30.04 in 10.0 mi Calm Calm - 0.00 in   Clear
3:35 AM 66.2 °F - 66.2 °F 100% 30.03 in 10.0 mi Calm Calm - 0.00 in   Clear
3:55 AM 66.2 °F - 66.2 °F 100% 30.03 in 7.0 mi Calm Calm - 0.00 in   Clear
4:15 AM 66.2 °F - 66.2 °F 100% 30.03 in 6.0 mi Calm Calm - 0.00 in   Clear
4:35 AM 64.4 °F - 64.4 °F 100% 30.03 in 7.0 mi Calm Calm - 0.00 in   Clear
4:55 AM 64.4 °F - 64.4 °F 100% 30.03 in 7.0 mi Calm Calm - 0.00 in   Clear
5:15 AM 64.4 °F - 64.4 °F 100% 30.03 in 10.0 mi Calm Calm - 0.00 in   Clear
5:35 AM 64.4 °F - 64.4 °F 100% 30.03 in 10.0 mi Calm Calm - 0.00 in   Clear
5:55 AM 64.4 °F - 64.4 °F 100% 30.04 in 7.0 mi Calm Calm - 0.00 in   Clear
6:15 AM 64.4 °F - 64.4 °F 100% 30.04 in 9.0 mi Calm Calm - 0.00 in   Clear
6:35 AM 64.4 °F - 64.4 °F 100% 30.04 in 9.0 mi Calm Calm - 0.00 in   Clear
6:50 AM 64.4 °F - 64.4 °F 100% 30.05 in 6.0 mi Calm Calm - N/A   Partly Cloudy
6:55 AM 64.4 °F - 64.4 °F 100% 30.04 in 9.0 mi Calm Calm - 0.00 in   Clear
7:15 AM 64.4 °F - 64.4 °F 100% 30.04 in 9.0 mi Calm Calm - 0.00 in   Clear
7:50 AM 69.8 °F - 68.0 °F 94% 30.06 in 8.0 mi Calm Calm - N/A   Partly Cloudy
8:50 AM 73.4 °F - 68.0 °F 83% 30.06 in 9.0 mi Calm Calm - N/A   Mostly Cloudy
9:50 AM 75.2 °F - 73.4 °F 94% 30.06 in 10.0 mi Calm Calm - N/A   Scattered Clouds
10:50 AM 78.8 °F - 71.6 °F 78% 30.06 in 10.0 mi NE 5.8 mph - N/A   Scattered Clouds
11:50 AM 80.6 °F 84.6 °F 71.6 °F 74% 30.05 in 9.0 mi NE 3.5 mph - N/A   Mostly Cloudy
12:55 PM 82.4 °F 86.3 °F 69.8 °F 66% 30.04 in 9.0 mi NE 5.8 mph - N/A   Mostly Cloudy
1:45 PM 84.2 °F 86.6 °F 66.2 °F 55% 30.02 in 9.0 mi NE 10.4 mph - N/A   Mostly Cloudy
2:50 PM 84.2 °F 86.6 °F 66.2 °F 55% 30.00 in 9.0 mi ENE 5.8 mph - N/A   Mostly Cloudy
4:50 PM 84.2 °F 87.3 °F 68.0 °F 58% 29.97 in 8.0 mi ENE 9.2 mph - N/A   Mostly Cloudy
5:50 PM 84.2 °F 87.3 °F 68.0 °F 58% 29.97 in 9.0 mi North 5.8 mph - N/A   Mostly Cloudy
7:50 PM 77.0 °F - 73.4 °F 89% 29.99 in 10.0 mi East 5.8 mph - N/A   Mostly Cloudy
9:35 PM 73.4 °F - 73.4 °F 100% 30.00 in 10.0 mi East 3.5 mph - 0.00 in   Clear
9:55 PM 73.4 °F - 73.4 °F 100% 30.00 in 7.0 mi ESE 4.6 mph - 0.00 in   Clear
10:15 PM 73.4 °F - 73.4 °F 100% 30.00 in 8.0 mi East 4.6 mph - 0.00 in   Clear
10:35 PM 71.6 °F - 71.6 °F 100% 30.01 in 10.0 mi East 3.5 mph - 0.00 in   Clear
10:55 PM 71.6 °F - 71.6 °F 100% 30.01 in 10.0 mi Calm Calm - 0.00 in   Clear
11:15 PM 71.6 °F - 71.6 °F 100% 30.02 in 9.0 mi ESE 5.8 mph - 0.00 in   Clear
11:35 PM 71.6 °F - 71.6 °F 100% 30.03 in 10.0 mi East 4.6 mph - 0.00 in   Clear
11:55 PM 71.6 °F - 71.6 °F 100% 30.03 in 10.0 mi Calm Calm - 0.00 in   Clear